Skip Page Navigation
NASA JPL Caltech
NASA Logo - Jet Propulsion Laboratory + View the NASA Portal
+ Center for Near-Earth Object Studies
JPL Home Earth Solar System Stars & Galaxies Technology
JPL Solar System Dynamics
BODIES ORBITS EPHEMERIDES TOOLS PHYSICAL DATA DISCOVERY FAQ SITE MAP
IMPORTANT: The SSD Announcement email list is now available. Major changes are coming in the near future, including possible hostname and/or URL changes. To be notified of such changes, subscribe to this email list.

Please visit this page for more details.


JPL Small-Body Database Browser
Search: [ help ]  
461686 (2005 MV19)
Classification: Main-belt Asteroid          SPK-ID: 2461686
Ephemeris | Orbit Diagram | Orbital Elements | Mission Design | Physical Parameters | Discovery Circumstances ]

[ show orbit diagram ]
Orbital Elements at Epoch 2458600.5 (2019-Apr-27.0) TDB
Reference: JPL 10 (heliocentric ecliptic J2000)
 Element Value Uncertainty (1-sigma)   Units 
e .2399874140356099 7.1776e-08  
a 2.421294393236164 2.8947e-08 au
q 1.840214213184496 1.7766e-07 au
i 12.61379588733339 7.7329e-06 deg
node 115.9849544583241 7.4235e-05 deg
peri 172.2634283172044 8.8557e-05 deg
M 226.5403598787403 4.958e-05 deg
tp 2459110.672764437312
(2020-Sep-18.17276444)
0.00019566 TDB
period 1376.162823686317
3.77
2.4679e-05
6.757e-08
d
yr
n .261596951904042 4.6912e-09 deg/d
Q 3.002374573287832 3.5894e-08 au
  Orbit Determination Parameters
   # obs. used (total)      65  
   data-arc span      5492 days (15.04 yr)  
   first obs. used      2002-11-07  
   last obs. used      2017-11-20  
   planetary ephem.      DE431  
   SB-pert. ephem.      SB431-N16  
   condition code      0  
   norm. resid. RMS      .68291  
   source      ORB  
   producer      Otto Matic  
   solution date      2019-Jul-14 11:05:08  

Additional Information
 Earth MOID = .824022 au 
 Jupiter MOID = 2.19877 au 
 T_jup = 3.441 
[ show covariance matrix ]

Ephemeris | Orbit Diagram | Orbital Elements | Mission Design | Physical Parameters | Discovery Circumstances ]

Physical Parameter Table
Parameter Symbol Value Units Sigma Reference Notes
absolute magnitude H 17.4   n/a MPO428090  

461686 (2005 MV19)          Discovered 2005-Jun-29 by Spacewatch at Kitt Peak
Reference: Last Updated: 2016-03-24

Alternate Designations
 2005 MV19 = 2008 EU19 
Ephemeris | Orbit Diagram | Orbital Elements | Mission Design | Physical Parameters | Discovery Circumstances ]
ABOUT SSD CREDITS/AWARDS PRIVACY/COPYRIGHT GLOSSARY LINKS
FirstGov 2019-Oct-21 21:35 UT
(server date/time)  
NASA Home Page
Site Manager:   Ryan S. Park
Webmaster  Alan B. Chamberlin